owner,sensor,date,latitude,longitude,vertical_datum,sea_water_temperature,qcFlag 
WAVCIS,ioos:station:WAVCIS:CSI16:1,2011-04-01T00:00:00Z,29.4012,-89.0355,10.0,22.389,11111222 
WAVCIS,ioos:station:WAVCIS:CSI16:1,2011-04-01T00:15:00Z,29.4012,-89.0355,10.0,22.367,11111222 
WAVCIS,ioos:station:WAVCIS:CSI16:1,2011-04-01T00:30:00Z,29.4012,-89.0355,10.0,22.397,11111222 
WAVCIS,ioos:station:WAVCIS:CSI16:1,2011-04-01T00:45:00Z,29.4012,-89.0355,10.0,22.421,11111222 
WAVCIS,ioos:station:WAVCIS:CSI16:1,2011-04-01T01:00:00Z,29.4012,-89.0355,10.0,22.368,11111222 
WAVCIS,ioos:station:WAVCIS:CSI16:1,2011-04-01T01:15:00Z,29.4012,-89.0355,10.0,22.351,11111222 
WAVCIS,ioos:station:WAVCIS:CSI16:1,2011-04-01T01:30:00Z,29.4012,-89.0355,10.0,22.344,11111222 
WAVCIS,ioos:station:WAVCIS:CSI16:1,2011-04-01T01:45:00Z,29.4012,-89.0355,10.0,22.335,11111222 
WAVCIS,ioos:station:WAVCIS:CSI16:1,2011-04-01T02:00:00Z,29.4012,-89.0355,10.0,22.309,11111222 
WAVCIS,ioos:station:WAVCIS:CSI16:1,2011-04-01T02:15:00Z,29.4012,-89.0355,10.0,22.305,11111222 
WAVCIS,ioos:station:WAVCIS:CSI16:1,2011-04-01T02:30:00Z,29.4012,-89.0355,10.0,22.243,11111222 
WAVCIS,ioos:station:WAVCIS:CSI16:1,2011-04-01T02:45:00Z,29.4012,-89.0355,10.0,22.24,11111222 
WAVCIS,ioos:station:WAVCIS:CSI16:1,2011-04-01T03:00:00Z,29.4012,-89.0355,10.0,22.192,11111222 
WAVCIS,ioos:station:WAVCIS:CSI16:1,2011-04-01T03:15:00Z,29.4012,-89.0355,10.0,22.146,11111222 
WAVCIS,ioos:station:WAVCIS:CSI16:1,2011-04-01T03:30:00Z,29.4012,-89.0355,10.0,22.023,11111222 
WAVCIS,ioos:station:WAVCIS:CSI16:1,2011-04-01T03:45:00Z,29.4012,-89.0355,10.0,21.992,11111222 
WAVCIS,ioos:station:WAVCIS:CSI16:1,2011-04-01T04:00:00Z,29.4012,-89.0355,10.0,22.051,11111222 
WAVCIS,ioos:station:WAVCIS:CSI16:1,2011-04-01T04:15:00Z,29.4012,-89.0355,10.0,22.087,11111222 
WAVCIS,ioos:station:WAVCIS:CSI16:1,2011-04-01T04:30:00Z,29.4012,-89.0355,10.0,22.178,11111222 
WAVCIS,ioos:station:WAVCIS:CSI16:1,2011-04-01T04:45:00Z,29.4012,-89.0355,10.0,22.151,11111222 
WAVCIS,ioos:station:WAVCIS:CSI16:1,2011-04-01T05:00:00Z,29.4012,-89.0355,10.0,22.227,11111222 
WAVCIS,ioos:station:WAVCIS:CSI16:1,2011-04-01T05:15:00Z,29.4012,-89.0355,10.0,22.138,11111222 
WAVCIS,ioos:station:WAVCIS:CSI16:1,2011-04-01T05:30:00Z,29.4012,-89.0355,10.0,22.089,11111222 
WAVCIS,ioos:station:WAVCIS:CSI16:1,2011-04-01T05:45:00Z,29.4012,-89.0355,10.0,21.914,11111222 
WAVCIS,ioos:station:WAVCIS:CSI16:1,2011-04-01T06:00:00Z,29.4012,-89.0355,10.0,21.797,11111222 
WAVCIS,ioos:station:WAVCIS:CSI16:1,2011-04-01T06:15:00Z,29.4012,-89.0355,10.0,21.665,11111222 
WAVCIS,ioos:station:WAVCIS:CSI16:1,2011-04-01T06:30:00Z,29.4012,-89.0355,10.0,21.676,11111222 
WAVCIS,ioos:station:WAVCIS:CSI16:1,2011-04-01T06:45:00Z,29.4012,-89.0355,10.0,21.706,11111222 
WAVCIS,ioos:station:WAVCIS:CSI16:1,2011-04-01T07:00:00Z,29.4012,-89.0355,10.0,21.673,11111222 
WAVCIS,ioos:station:WAVCIS:CSI16:1,2011-04-01T07:15:00Z,29.4012,-89.0355,10.0,21.723,11111222 
WAVCIS,ioos:station:WAVCIS:CSI16:1,2011-04-01T07:30:00Z,29.4012,-89.0355,10.0,21.677,11111222 
WAVCIS,ioos:station:WAVCIS:CSI16:1,2011-04-01T07:45:00Z,29.4012,-89.0355,10.0,21.725,11111222 
WAVCIS,ioos:station:WAVCIS:CSI16:1,2011-04-01T08:00:00Z,29.4012,-89.0355,10.0,21.736,11111222 
WAVCIS,ioos:station:WAVCIS:CSI16:1,2011-04-01T08:15:00Z,29.4012,-89.0355,10.0,21.798,11111222 
WAVCIS,ioos:station:WAVCIS:CSI16:1,2011-04-01T08:30:00Z,29.4012,-89.0355,10.0,21.837,11111222 
WAVCIS,ioos:station:WAVCIS:CSI16:1,2011-04-01T08:45:00Z,29.4012,-89.0355,10.0,21.568,11111222 
WAVCIS,ioos:station:WAVCIS:CSI16:1,2011-04-01T09:00:00Z,29.4012,-89.0355,10.0,21.596,11111222 
WAVCIS,ioos:station:WAVCIS:CSI16:1,2011-04-01T09:15:00Z,29.4012,-89.0355,10.0,21.42,11111222 
WAVCIS,ioos:station:WAVCIS:CSI16:1,2011-04-01T09:30:00Z,29.4012,-89.0355,10.0,21.389,11111222 
WAVCIS,ioos:station:WAVCIS:CSI16:1,2011-04-01T09:45:00Z,29.4012,-89.0355,10.0,21.485,11111222 
WAVCIS,ioos:station:WAVCIS:CSI16:1,2011-04-01T10:00:00Z,29.4012,-89.0355,10.0,21.265,11111222 
WAVCIS,ioos:station:WAVCIS:CSI16:1,2011-04-01T10:15:00Z,29.4012,-89.0355,10.0,21.318,11111222 
WAVCIS,ioos:station:WAVCIS:CSI16:1,2011-04-01T10:30:00Z,29.4012,-89.0355,10.0,21.313,11111222 
WAVCIS,ioos:station:WAVCIS:CSI16:1,2011-04-01T10:45:00Z,29.4012,-89.0355,10.0,21.377,11111222 
WAVCIS,ioos:station:WAVCIS:CSI16:1,2011-04-01T11:00:00Z,29.4012,-89.0355,10.0,21.48,11111222 
WAVCIS,ioos:station:WAVCIS:CSI16:1,2011-04-01T11:15:00Z,29.4012,-89.0355,10.0,21.315,11111222 
WAVCIS,ioos:station:WAVCIS:CSI16:1,2011-04-01T11:30:00Z,29.4012,-89.0355,10.0,21.424,11111222 
WAVCIS,ioos:station:WAVCIS:CSI16:1,2011-04-01T11:45:00Z,29.4012,-89.0355,10.0,21.369,11111222 
WAVCIS,ioos:station:WAVCIS:CSI16:1,2011-04-01T12:00:00Z,29.4012,-89.0355,10.0,21.271,11111222 
WAVCIS,ioos:station:WAVCIS:CSI16:1,2011-04-01T12:15:00Z,29.4012,-89.0355,10.0,21.302,11111222 
WAVCIS,ioos:station:WAVCIS:CSI16:1,2011-04-01T12:30:00Z,29.4012,-89.0355,10.0,21.133,11111222 
WAVCIS,ioos:station:WAVCIS:CSI16:1,2011-04-01T12:45:00Z,29.4012,-89.0355,10.0,21.15,11111222 
WAVCIS,ioos:station:WAVCIS:CSI16:1,2011-04-01T13:00:00Z,29.4012,-89.0355,10.0,21.107,11111222 
WAVCIS,ioos:station:WAVCIS:CSI16:1,2011-04-01T13:15:00Z,29.4012,-89.0355,10.0,20.932,11111222 
WAVCIS,ioos:station:WAVCIS:CSI16:1,2011-04-01T13:30:00Z,29.4012,-89.0355,10.0,20.939,11111222 
WAVCIS,ioos:station:WAVCIS:CSI16:1,2011-04-01T13:45:00Z,29.4012,-89.0355,10.0,20.806,11111222 
WAVCIS,ioos:station:WAVCIS:CSI16:1,2011-04-01T14:00:00Z,29.4012,-89.0355,10.0,20.934,11111222 
WAVCIS,ioos:station:WAVCIS:CSI16:1,2011-04-01T14:15:00Z,29.4012,-89.0355,10.0,21.068,11111222 
WAVCIS,ioos:station:WAVCIS:CSI16:1,2011-04-01T14:30:00Z,29.4012,-89.0355,10.0,21.446,11111222 
WAVCIS,ioos:station:WAVCIS:CSI16:1,2011-04-01T14:45:00Z,29.4012,-89.0355,10.0,21.484,11111222 
WAVCIS,ioos:station:WAVCIS:CSI16:1,2011-04-01T15:00:00Z,29.4012,-89.0355,10.0,21.57,11111222 
WAVCIS,ioos:station:WAVCIS:CSI16:1,2011-04-01T15:15:00Z,29.4012,-89.0355,10.0,21.589,11111222 
WAVCIS,ioos:station:WAVCIS:CSI16:1,2011-04-01T15:30:00Z,29.4012,-89.0355,10.0,21.557,11111222 
WAVCIS,ioos:station:WAVCIS:CSI16:1,2011-04-01T15:45:00Z,29.4012,-89.0355,10.0,21.471,11111222 
WAVCIS,ioos:station:WAVCIS:CSI16:1,2011-04-01T16:00:00Z,29.4012,-89.0355,10.0,21.54,11111222 
WAVCIS,ioos:station:WAVCIS:CSI16:1,2011-04-01T16:15:00Z,29.4012,-89.0355,10.0,21.561,11111222 
WAVCIS,ioos:station:WAVCIS:CSI16:1,2011-04-01T16:30:00Z,29.4012,-89.0355,10.0,21.512,11111222 
WAVCIS,ioos:station:WAVCIS:CSI16:1,2011-04-01T16:45:00Z,29.4012,-89.0355,10.0,21.455,11111222 
WAVCIS,ioos:station:WAVCIS:CSI16:1,2011-04-01T17:00:00Z,29.4012,-89.0355,10.0,21.49,11111222 
WAVCIS,ioos:station:WAVCIS:CSI16:1,2011-04-01T17:15:00Z,29.4012,-89.0355,10.0,21.577,11111222 
WAVCIS,ioos:station:WAVCIS:CSI16:1,2011-04-01T17:30:00Z,29.4012,-89.0355,10.0,21.653,11111222 
WAVCIS,ioos:station:WAVCIS:CSI16:1,2011-04-01T17:45:00Z,29.4012,-89.0355,10.0,21.57,11111222 
WAVCIS,ioos:station:WAVCIS:CSI16:1,2011-04-01T18:00:00Z,29.4012,-89.0355,10.0,21.628,11111222 
WAVCIS,ioos:station:WAVCIS:CSI16:1,2011-04-01T18:15:00Z,29.4012,-89.0355,10.0,21.544,11111222 
WAVCIS,ioos:station:WAVCIS:CSI16:1,2011-04-01T18:30:00Z,29.4012,-89.0355,10.0,21.618,11111222 
WAVCIS,ioos:station:WAVCIS:CSI16:1,2011-04-01T18:45:00Z,29.4012,-89.0355,10.0,21.729,11111222 
WAVCIS,ioos:station:WAVCIS:CSI16:1,2011-04-01T19:00:00Z,29.4012,-89.0355,10.0,21.749,11111222 
WAVCIS,ioos:station:WAVCIS:CSI16:1,2011-04-01T19:15:00Z,29.4012,-89.0355,10.0,21.602,11111222 
WAVCIS,ioos:station:WAVCIS:CSI16:1,2011-04-01T19:30:00Z,29.4012,-89.0355,10.0,21.561,11111222 
WAVCIS,ioos:station:WAVCIS:CSI16:1,2011-04-01T19:45:00Z,29.4012,-89.0355,10.0,21.56,11111222 
WAVCIS,ioos:station:WAVCIS:CSI16:1,2011-04-01T20:00:00Z,29.4012,-89.0355,10.0,21.515,11111222 
WAVCIS,ioos:station:WAVCIS:CSI16:1,2011-04-01T20:15:00Z,29.4012,-89.0355,10.0,21.567,11111222 
WAVCIS,ioos:station:WAVCIS:CSI16:1,2011-04-01T20:30:00Z,29.4012,-89.0355,10.0,21.599,11111222 
WAVCIS,ioos:station:WAVCIS:CSI16:1,2011-04-01T20:45:00Z,29.4012,-89.0355,10.0,21.498,11111222 
WAVCIS,ioos:station:WAVCIS:CSI16:1,2011-04-01T21:00:00Z,29.4012,-89.0355,10.0,21.668,11111222 
WAVCIS,ioos:station:WAVCIS:CSI16:1,2011-04-01T21:15:00Z,29.4012,-89.0355,10.0,21.512,11111222 
WAVCIS,ioos:station:WAVCIS:CSI16:1,2011-04-01T21:30:00Z,29.4012,-89.0355,10.0,21.482,11111222 
WAVCIS,ioos:station:WAVCIS:CSI16:1,2011-04-01T21:45:00Z,29.4012,-89.0355,10.0,21.613,11111222 
WAVCIS,ioos:station:WAVCIS:CSI16:1,2011-04-01T22:00:00Z,29.4012,-89.0355,10.0,21.637,11111222 
WAVCIS,ioos:station:WAVCIS:CSI16:1,2011-04-01T22:15:00Z,29.4012,-89.0355,10.0,21.706,11111222 
WAVCIS,ioos:station:WAVCIS:CSI16:1,2011-04-01T22:30:00Z,29.4012,-89.0355,10.0,21.722,11111222 
WAVCIS,ioos:station:WAVCIS:CSI16:1,2011-04-01T22:45:00Z,29.4012,-89.0355,10.0,21.938,11111222 
WAVCIS,ioos:station:WAVCIS:CSI16:1,2011-04-01T23:00:00Z,29.4012,-89.0355,10.0,22.291,11111222 
WAVCIS,ioos:station:WAVCIS:CSI16:1,2011-04-01T23:15:00Z,29.4012,-89.0355,10.0,22.318,11111222 
WAVCIS,ioos:station:WAVCIS:CSI16:1,2011-04-01T23:30:00Z,29.4012,-89.0355,10.0,22.247,11111222 
WAVCIS,ioos:station:WAVCIS:CSI16:1,2011-04-01T23:45:00Z,29.4012,-89.0355,10.0,22.304,11111222 
WAVCIS,ioos:station:WAVCIS:CSI16:1,2011-04-02T00:00:00Z,29.4012,-89.0355,10.0,22.275,11111222 
WAVCIS,ioos:station:WAVCIS:CSI16:1,2011-04-02T00:15:00Z,29.4012,-89.0355,10.0,22.154,11111222 
WAVCIS,ioos:station:WAVCIS:CSI16:1,2011-04-02T00:30:00Z,29.4012,-89.0355,10.0,21.706,11111222 
WAVCIS,ioos:station:WAVCIS:CSI16:1,2011-04-02T00:45:00Z,29.4012,-89.0355,10.0,21.752,11111222 
WAVCIS,ioos:station:WAVCIS:CSI16:1,2011-04-02T01:00:00Z,29.4012,-89.0355,10.0,21.719,11111222 
WAVCIS,ioos:station:WAVCIS:CSI16:1,2011-04-02T01:15:00Z,29.4012,-89.0355,10.0,21.75,11111222 
WAVCIS,ioos:station:WAVCIS:CSI16:1,2011-04-02T01:30:00Z,29.4012,-89.0355,10.0,21.943,11111222 
WAVCIS,ioos:station:WAVCIS:CSI16:1,2011-04-02T01:45:00Z,29.4012,-89.0355,10.0,22.128,11111222 
WAVCIS,ioos:station:WAVCIS:CSI16:1,2011-04-02T02:00:00Z,29.4012,-89.0355,10.0,21.882,11111222 
WAVCIS,ioos:station:WAVCIS:CSI16:1,2011-04-02T02:15:00Z,29.4012,-89.0355,10.0,21.981,11111222 
WAVCIS,ioos:station:WAVCIS:CSI16:1,2011-04-02T02:30:00Z,29.4012,-89.0355,10.0,22.036,11111222 
WAVCIS,ioos:station:WAVCIS:CSI16:1,2011-04-02T02:45:00Z,29.4012,-89.0355,10.0,22.061,11111222 
WAVCIS,ioos:station:WAVCIS:CSI16:1,2011-04-02T03:00:00Z,29.4012,-89.0355,10.0,21.701,11111222 
WAVCIS,ioos:station:WAVCIS:CSI16:1,2011-04-02T03:15:00Z,29.4012,-89.0355,10.0,21.569,11111222 
WAVCIS,ioos:station:WAVCIS:CSI16:1,2011-04-02T03:30:00Z,29.4012,-89.0355,10.0,21.598,11111222 
WAVCIS,ioos:station:WAVCIS:CSI16:1,2011-04-02T03:45:00Z,29.4012,-89.0355,10.0,21.629,11111222 
WAVCIS,ioos:station:WAVCIS:CSI16:1,2011-04-02T04:00:00Z,29.4012,-89.0355,10.0,21.662,11111222 
WAVCIS,ioos:station:WAVCIS:CSI16:1,2011-04-02T04:15:00Z,29.4012,-89.0355,10.0,21.675,11111222 
WAVCIS,ioos:station:WAVCIS:CSI16:1,2011-04-02T04:30:00Z,29.4012,-89.0355,10.0,21.69,11111222 
WAVCIS,ioos:station:WAVCIS:CSI16:1,2011-04-02T04:45:00Z,29.4012,-89.0355,10.0,21.668,11111222 
WAVCIS,ioos:station:WAVCIS:CSI16:1,2011-04-02T05:00:00Z,29.4012,-89.0355,10.0,21.74,11111222 
WAVCIS,ioos:station:WAVCIS:CSI16:1,2011-04-02T05:15:00Z,29.4012,-89.0355,10.0,21.822,11111222 
WAVCIS,ioos:station:WAVCIS:CSI16:1,2011-04-02T05:30:00Z,29.4012,-89.0355,10.0,21.871,11111222 
WAVCIS,ioos:station:WAVCIS:CSI16:1,2011-04-02T05:45:00Z,29.4012,-89.0355,10.0,21.877,11111222 
WAVCIS,ioos:station:WAVCIS:CSI16:1,2011-04-02T06:00:00Z,29.4012,-89.0355,10.0,21.838,11111222 
WAVCIS,ioos:station:WAVCIS:CSI16:1,2011-04-02T06:15:00Z,29.4012,-89.0355,10.0,21.818,11111222 
WAVCIS,ioos:station:WAVCIS:CSI16:1,2011-04-02T06:30:00Z,29.4012,-89.0355,10.0,21.828,11111222 
WAVCIS,ioos:station:WAVCIS:CSI16:1,2011-04-02T06:45:00Z,29.4012,-89.0355,10.0,21.824,11111222 
WAVCIS,ioos:station:WAVCIS:CSI16:1,2011-04-02T07:00:00Z,29.4012,-89.0355,10.0,21.819,11111222 
WAVCIS,ioos:station:WAVCIS:CSI16:1,2011-04-02T07:15:00Z,29.4012,-89.0355,10.0,21.83,11111222 
WAVCIS,ioos:station:WAVCIS:CSI16:1,2011-04-02T07:30:00Z,29.4012,-89.0355,10.0,21.827,11111222 
WAVCIS,ioos:station:WAVCIS:CSI16:1,2011-04-02T07:45:00Z,29.4012,-89.0355,10.0,21.817,11111222 
WAVCIS,ioos:station:WAVCIS:CSI16:1,2011-04-02T08:00:00Z,29.4012,-89.0355,10.0,21.79,11111222 
WAVCIS,ioos:station:WAVCIS:CSI16:1,2011-04-02T08:15:00Z,29.4012,-89.0355,10.0,21.781,11111222 
WAVCIS,ioos:station:WAVCIS:CSI16:1,2011-04-02T08:30:00Z,29.4012,-89.0355,10.0,21.803,11111222 
WAVCIS,ioos:station:WAVCIS:CSI16:1,2011-04-02T08:45:00Z,29.4012,-89.0355,10.0,21.79,11111222 
WAVCIS,ioos:station:WAVCIS:CSI16:1,2011-04-02T09:00:00Z,29.4012,-89.0355,10.0,21.792,11111222 
WAVCIS,ioos:station:WAVCIS:CSI16:1,2011-04-02T09:15:00Z,29.4012,-89.0355,10.0,21.784,11111222 
WAVCIS,ioos:station:WAVCIS:CSI16:1,2011-04-02T09:30:00Z,29.4012,-89.0355,10.0,21.783,11111222 
WAVCIS,ioos:station:WAVCIS:CSI16:1,2011-04-02T09:45:00Z,29.4012,-89.0355,10.0,21.744,11111222 
WAVCIS,ioos:station:WAVCIS:CSI16:1,2011-04-02T10:00:00Z,29.4012,-89.0355,10.0,21.731,11111222 
WAVCIS,ioos:station:WAVCIS:CSI16:1,2011-04-02T10:15:00Z,29.4012,-89.0355,10.0,21.731,11111222 
WAVCIS,ioos:station:WAVCIS:CSI16:1,2011-04-02T10:30:00Z,29.4012,-89.0355,10.0,21.755,11111222 
WAVCIS,ioos:station:WAVCIS:CSI16:1,2011-04-02T10:45:00Z,29.4012,-89.0355,10.0,21.809,11111222 
WAVCIS,ioos:station:WAVCIS:CSI16:1,2011-04-02T11:00:00Z,29.4012,-89.0355,10.0,21.873,11111222 
WAVCIS,ioos:station:WAVCIS:CSI16:1,2011-04-02T11:15:00Z,29.4012,-89.0355,10.0,21.884,11111222 
WAVCIS,ioos:station:WAVCIS:CSI16:1,2011-04-02T11:30:00Z,29.4012,-89.0355,10.0,21.876,11111222 
WAVCIS,ioos:station:WAVCIS:CSI16:1,2011-04-02T11:45:00Z,29.4012,-89.0355,10.0,21.868,11111222 
WAVCIS,ioos:station:WAVCIS:CSI16:1,2011-04-02T12:00:00Z,29.4012,-89.0355,10.0,21.76,11111222 
WAVCIS,ioos:station:WAVCIS:CSI16:1,2011-04-02T12:15:00Z,29.4012,-89.0355,10.0,21.697,11111222 
WAVCIS,ioos:station:WAVCIS:CSI16:1,2011-04-02T12:30:00Z,29.4012,-89.0355,10.0,21.695,11111222 
WAVCIS,ioos:station:WAVCIS:CSI16:1,2011-04-02T12:45:00Z,29.4012,-89.0355,10.0,21.801,11111222 
WAVCIS,ioos:station:WAVCIS:CSI16:1,2011-04-02T13:00:00Z,29.4012,-89.0355,10.0,21.774,11111222 
WAVCIS,ioos:station:WAVCIS:CSI16:1,2011-04-02T13:15:00Z,29.4012,-89.0355,10.0,21.782,11111222 
WAVCIS,ioos:station:WAVCIS:CSI16:1,2011-04-02T13:30:00Z,29.4012,-89.0355,10.0,21.824,11111222 
WAVCIS,ioos:station:WAVCIS:CSI16:1,2011-04-02T13:45:00Z,29.4012,-89.0355,10.0,21.872,11111222 
WAVCIS,ioos:station:WAVCIS:CSI16:1,2011-04-02T14:00:00Z,29.4012,-89.0355,10.0,21.87,11111222 
WAVCIS,ioos:station:WAVCIS:CSI16:1,2011-04-02T14:15:00Z,29.4012,-89.0355,10.0,21.889,11111222 
WAVCIS,ioos:station:WAVCIS:CSI16:1,2011-04-02T14:30:00Z,29.4012,-89.0355,10.0,21.8,11111222 
WAVCIS,ioos:station:WAVCIS:CSI16:1,2011-04-02T14:45:00Z,29.4012,-89.0355,10.0,21.858,11111222 
WAVCIS,ioos:station:WAVCIS:CSI16:1,2011-04-02T15:00:00Z,29.4012,-89.0355,10.0,21.778,11111222 
WAVCIS,ioos:station:WAVCIS:CSI16:1,2011-04-02T15:15:00Z,29.4012,-89.0355,10.0,21.777,11111222 
WAVCIS,ioos:station:WAVCIS:CSI16:1,2011-04-02T15:30:00Z,29.4012,-89.0355,10.0,21.763,11111222 
WAVCIS,ioos:station:WAVCIS:CSI16:1,2011-04-02T15:45:00Z,29.4012,-89.0355,10.0,21.729,11111222 
WAVCIS,ioos:station:WAVCIS:CSI16:1,2011-04-02T16:00:00Z,29.4012,-89.0355,10.0,21.732,11111222 
WAVCIS,ioos:station:WAVCIS:CSI16:1,2011-04-02T16:15:00Z,29.4012,-89.0355,10.0,21.73,11111222 
WAVCIS,ioos:station:WAVCIS:CSI16:1,2011-04-02T16:30:00Z,29.4012,-89.0355,10.0,21.781,11111222 
WAVCIS,ioos:station:WAVCIS:CSI16:1,2011-04-02T16:45:00Z,29.4012,-89.0355,10.0,21.797,11111222 
WAVCIS,ioos:station:WAVCIS:CSI16:1,2011-04-02T17:00:00Z,29.4012,-89.0355,10.0,21.756,11111222 
WAVCIS,ioos:station:WAVCIS:CSI16:1,2011-04-02T17:15:00Z,29.4012,-89.0355,10.0,21.844,11111222 
WAVCIS,ioos:station:WAVCIS:CSI16:1,2011-04-02T17:30:00Z,29.4012,-89.0355,10.0,21.82,11111222 
WAVCIS,ioos:station:WAVCIS:CSI16:1,2011-04-02T17:45:00Z,29.4012,-89.0355,10.0,21.757,11111222 
WAVCIS,ioos:station:WAVCIS:CSI16:1,2011-04-02T18:00:00Z,29.4012,-89.0355,10.0,21.594,11111222 
WAVCIS,ioos:station:WAVCIS:CSI16:1,2011-04-02T18:15:00Z,29.4012,-89.0355,10.0,21.444,11111222 
WAVCIS,ioos:station:WAVCIS:CSI16:1,2011-04-02T18:30:00Z,29.4012,-89.0355,10.0,21.35,11111222 
WAVCIS,ioos:station:WAVCIS:CSI16:1,2011-04-02T18:45:00Z,29.4012,-89.0355,10.0,21.502,11111222 
WAVCIS,ioos:station:WAVCIS:CSI16:1,2011-04-02T19:00:00Z,29.4012,-89.0355,10.0,21.117,11111222 
WAVCIS,ioos:station:WAVCIS:CSI16:1,2011-04-02T19:15:00Z,29.4012,-89.0355,10.0,21.094,11111222 
WAVCIS,ioos:station:WAVCIS:CSI16:1,2011-04-02T19:30:00Z,29.4012,-89.0355,10.0,21.094,11111222 
WAVCIS,ioos:station:WAVCIS:CSI16:1,2011-04-02T19:45:00Z,29.4012,-89.0355,10.0,20.946,11111222 
WAVCIS,ioos:station:WAVCIS:CSI16:1,2011-04-02T20:00:00Z,29.4012,-89.0355,10.0,21.076,11111222 
WAVCIS,ioos:station:WAVCIS:CSI16:1,2011-04-02T20:15:00Z,29.4012,-89.0355,10.0,21.225,11111222 
WAVCIS,ioos:station:WAVCIS:CSI16:1,2011-04-02T20:30:00Z,29.4012,-89.0355,10.0,21.147,11111222 
WAVCIS,ioos:station:WAVCIS:CSI16:1,2011-04-02T20:45:00Z,29.4012,-89.0355,10.0,21.269,11111222 
WAVCIS,ioos:station:WAVCIS:CSI16:1,2011-04-02T21:00:00Z,29.4012,-89.0355,10.0,21.333,11111222 
WAVCIS,ioos:station:WAVCIS:CSI16:1,2011-04-02T21:15:00Z,29.4012,-89.0355,10.0,21.464,11111222 
WAVCIS,ioos:station:WAVCIS:CSI16:1,2011-04-02T21:30:00Z,29.4012,-89.0355,10.0,21.337,11111222 
WAVCIS,ioos:station:WAVCIS:CSI16:1,2011-04-02T21:45:00Z,29.4012,-89.0355,10.0,21.386,11111222 
WAVCIS,ioos:station:WAVCIS:CSI16:1,2011-04-02T22:00:00Z,29.4012,-89.0355,10.0,21.271,11111222 
WAVCIS,ioos:station:WAVCIS:CSI16:1,2011-04-02T22:15:00Z,29.4012,-89.0355,10.0,21.366,11111222 
WAVCIS,ioos:station:WAVCIS:CSI16:1,2011-04-02T22:30:00Z,29.4012,-89.0355,10.0,21.552,11111222 
WAVCIS,ioos:station:WAVCIS:CSI16:1,2011-04-02T22:45:00Z,29.4012,-89.0355,10.0,21.12,11111222 
WAVCIS,ioos:station:WAVCIS:CSI16:1,2011-04-02T23:00:00Z,29.4012,-89.0355,10.0,21.651,11111222 
WAVCIS,ioos:station:WAVCIS:CSI16:1,2011-04-02T23:15:00Z,29.4012,-89.0355,10.0,20.902,11111222 
WAVCIS,ioos:station:WAVCIS:CSI16:1,2011-04-02T23:30:00Z,29.4012,-89.0355,10.0,20.737,11111222 
WAVCIS,ioos:station:WAVCIS:CSI16:1,2011-04-02T23:45:00Z,29.4012,-89.0355,10.0,20.683,11111222 
WAVCIS,ioos:station:WAVCIS:CSI16:1,2011-04-03T00:00:00Z,29.4012,-89.0355,10.0,20.943,11111222 
WAVCIS,ioos:station:WAVCIS:CSI16:1,2011-04-03T00:15:00Z,29.4012,-89.0355,10.0,21.075,11111222 
WAVCIS,ioos:station:WAVCIS:CSI16:1,2011-04-03T00:30:00Z,29.4012,-89.0355,10.0,21.228,11111222 
WAVCIS,ioos:station:WAVCIS:CSI16:1,2011-04-03T00:45:00Z,29.4012,-89.0355,10.0,21.264,11111222 
WAVCIS,ioos:station:WAVCIS:CSI16:1,2011-04-03T01:00:00Z,29.4012,-89.0355,10.0,21.329,11111222 
WAVCIS,ioos:station:WAVCIS:CSI16:1,2011-04-03T01:15:00Z,29.4012,-89.0355,10.0,21.199,11111222 
WAVCIS,ioos:station:WAVCIS:CSI16:1,2011-04-03T01:30:00Z,29.4012,-89.0355,10.0,21.091,11111222 
WAVCIS,ioos:station:WAVCIS:CSI16:1,2011-04-03T01:45:00Z,29.4012,-89.0355,10.0,21.072,11111222 
WAVCIS,ioos:station:WAVCIS:CSI16:1,2011-04-03T02:00:00Z,29.4012,-89.0355,10.0,21.304,11111222 
WAVCIS,ioos:station:WAVCIS:CSI16:1,2011-04-03T02:15:00Z,29.4012,-89.0355,10.0,21.356,11111222 
WAVCIS,ioos:station:WAVCIS:CSI16:1,2011-04-03T02:30:00Z,29.4012,-89.0355,10.0,21.452,11111222 
WAVCIS,ioos:station:WAVCIS:CSI16:1,2011-04-03T02:45:00Z,29.4012,-89.0355,10.0,21.445,11111222 
WAVCIS,ioos:station:WAVCIS:CSI16:1,2011-04-03T03:00:00Z,29.4012,-89.0355,10.0,21.419,11111222 
WAVCIS,ioos:station:WAVCIS:CSI16:1,2011-04-03T03:15:00Z,29.4012,-89.0355,10.0,21.555,11111222 
WAVCIS,ioos:station:WAVCIS:CSI16:1,2011-04-03T03:30:00Z,29.4012,-89.0355,10.0,21.52,11111222 
WAVCIS,ioos:station:WAVCIS:CSI16:1,2011-04-03T03:45:00Z,29.4012,-89.0355,10.0,21.451,11111222 
WAVCIS,ioos:station:WAVCIS:CSI16:1,2011-04-03T04:00:00Z,29.4012,-89.0355,10.0,21.543,11111222 
WAVCIS,ioos:station:WAVCIS:CSI16:1,2011-04-03T04:15:00Z,29.4012,-89.0355,10.0,21.663,11111222 
WAVCIS,ioos:station:WAVCIS:CSI16:1,2011-04-03T04:30:00Z,29.4012,-89.0355,10.0,21.74,11111222 
WAVCIS,ioos:station:WAVCIS:CSI16:1,2011-04-03T04:45:00Z,29.4012,-89.0355,10.0,21.645,11111222 
WAVCIS,ioos:station:WAVCIS:CSI16:1,2011-04-03T05:00:00Z,29.4012,-89.0355,10.0,21.788,11111222 
WAVCIS,ioos:station:WAVCIS:CSI16:1,2011-04-03T05:15:00Z,29.4012,-89.0355,10.0,21.869,11111222 
WAVCIS,ioos:station:WAVCIS:CSI16:1,2011-04-03T05:30:00Z,29.4012,-89.0355,10.0,21.879,11111222 
WAVCIS,ioos:station:WAVCIS:CSI16:1,2011-04-03T05:45:00Z,29.4012,-89.0355,10.0,21.939,11111222 
WAVCIS,ioos:station:WAVCIS:CSI16:1,2011-04-03T06:00:00Z,29.4012,-89.0355,10.0,21.979,11111222 
WAVCIS,ioos:station:WAVCIS:CSI16:1,2011-04-03T06:15:00Z,29.4012,-89.0355,10.0,22.028,11111222 
WAVCIS,ioos:station:WAVCIS:CSI16:1,2011-04-03T06:30:00Z,29.4012,-89.0355,10.0,22.054,11111222 
WAVCIS,ioos:station:WAVCIS:CSI16:1,2011-04-03T06:45:00Z,29.4012,-89.0355,10.0,22.044,11111222 
WAVCIS,ioos:station:WAVCIS:CSI16:1,2011-04-03T07:00:00Z,29.4012,-89.0355,10.0,21.997,11111222 
WAVCIS,ioos:station:WAVCIS:CSI16:1,2011-04-03T07:15:00Z,29.4012,-89.0355,10.0,21.955,11111222 
WAVCIS,ioos:station:WAVCIS:CSI16:1,2011-04-03T07:30:00Z,29.4012,-89.0355,10.0,21.905,11111222 
WAVCIS,ioos:station:WAVCIS:CSI16:1,2011-04-03T07:45:00Z,29.4012,-89.0355,10.0,21.86,11111222 
WAVCIS,ioos:station:WAVCIS:CSI16:1,2011-04-03T08:00:00Z,29.4012,-89.0355,10.0,21.766,11111222 
WAVCIS,ioos:station:WAVCIS:CSI16:1,2011-04-03T08:15:00Z,29.4012,-89.0355,10.0,21.745,11111222 
WAVCIS,ioos:station:WAVCIS:CSI16:1,2011-04-03T08:30:00Z,29.4012,-89.0355,10.0,21.763,11111222 
WAVCIS,ioos:station:WAVCIS:CSI16:1,2011-04-03T08:45:00Z,29.4012,-89.0355,10.0,21.783,11111222 
WAVCIS,ioos:station:WAVCIS:CSI16:1,2011-04-03T09:00:00Z,29.4012,-89.0355,10.0,21.795,11111222 
WAVCIS,ioos:station:WAVCIS:CSI16:1,2011-04-03T09:15:00Z,29.4012,-89.0355,10.0,21.886,11111222 
WAVCIS,ioos:station:WAVCIS:CSI16:1,2011-04-03T09:30:00Z,29.4012,-89.0355,10.0,21.922,11111222 
WAVCIS,ioos:station:WAVCIS:CSI16:1,2011-04-03T09:45:00Z,29.4012,-89.0355,10.0,21.933,11111222 
WAVCIS,ioos:station:WAVCIS:CSI16:1,2011-04-03T10:00:00Z,29.4012,-89.0355,10.0,21.916,11111222 
WAVCIS,ioos:station:WAVCIS:CSI16:1,2011-04-03T10:15:00Z,29.4012,-89.0355,10.0,21.874,11111222 
WAVCIS,ioos:station:WAVCIS:CSI16:1,2011-04-03T10:30:00Z,29.4012,-89.0355,10.0,21.853,11111222 
WAVCIS,ioos:station:WAVCIS:CSI16:1,2011-04-03T10:45:00Z,29.4012,-89.0355,10.0,21.854,11111222 
WAVCIS,ioos:station:WAVCIS:CSI16:1,2011-04-03T11:00:00Z,29.4012,-89.0355,10.0,21.91,11111222 
WAVCIS,ioos:station:WAVCIS:CSI16:1,2011-04-03T11:15:00Z,29.4012,-89.0355,10.0,21.9,11111222 
WAVCIS,ioos:station:WAVCIS:CSI16:1,2011-04-03T11:30:00Z,29.4012,-89.0355,10.0,21.874,11111222 
WAVCIS,ioos:station:WAVCIS:CSI16:1,2011-04-03T11:45:00Z,29.4012,-89.0355,10.0,21.976,11111222 
WAVCIS,ioos:station:WAVCIS:CSI16:1,2011-04-03T12:00:00Z,29.4012,-89.0355,10.0,21.496,11111222 
WAVCIS,ioos:station:WAVCIS:CSI16:1,2011-04-03T12:15:00Z,29.4012,-89.0355,10.0,21.974,11111222 
WAVCIS,ioos:station:WAVCIS:CSI16:1,2011-04-03T12:30:00Z,29.4012,-89.0355,10.0,21.972,11111222 
WAVCIS,ioos:station:WAVCIS:CSI16:1,2011-04-03T12:45:00Z,29.4012,-89.0355,10.0,21.982,11111222 
WAVCIS,ioos:station:WAVCIS:CSI16:1,2011-04-03T13:00:00Z,29.4012,-89.0355,10.0,21.97,11111222 
WAVCIS,ioos:station:WAVCIS:CSI16:1,2011-04-03T13:15:00Z,29.4012,-89.0355,10.0,21.974,11111222 
WAVCIS,ioos:station:WAVCIS:CSI16:1,2011-04-03T13:30:00Z,29.4012,-89.0355,10.0,21.992,11111222 
WAVCIS,ioos:station:WAVCIS:CSI16:1,2011-04-03T13:45:00Z,29.4012,-89.0355,10.0,21.994,11111222 
WAVCIS,ioos:station:WAVCIS:CSI16:1,2011-04-03T14:00:00Z,29.4012,-89.0355,10.0,21.994,11111222 
WAVCIS,ioos:station:WAVCIS:CSI16:1,2011-04-03T14:15:00Z,29.4012,-89.0355,10.0,21.96,11111222 
WAVCIS,ioos:station:WAVCIS:CSI16:1,2011-04-03T14:30:00Z,29.4012,-89.0355,10.0,21.963,11111222 
WAVCIS,ioos:station:WAVCIS:CSI16:1,2011-04-03T14:45:00Z,29.4012,-89.0355,10.0,21.977,11111222 